Wind_Speed
44 42 45 45 44 42 36 35 31 28 24 27 17 20 20 17 20 19 16 16 18 12 13 11 14 9 14 8 10 8 10 12 15 16 12 15 16 17 22 25 23 26 26
45 42 44 43 44 44 44 39 38 34 32 28 28 21 21 21 20 22 20 20 16 16 12 17 13 14 15 16 15 13 9 12 16 20 21 21 21 17 19 23 24 24 25
43 43 42 43 43 43 44 45 40 40 36 34 32 29 30 26 21 21 20 18 22 19 16 16 17 18 17 17 16 16 18 14 17 20 21 19 21 22 22 22 25 27 26
42 43 44 46 46 45 42 41 46 40 40 38 35 33 29 27 24 23 24 22 20 24 22 21 22 22 22 21 20 20 21 21 21 22 25 23 19 20 22 23 19 19 27
43 44 46 47 46 43 43 43 41 47 45 41 37 34 32 29 27 26 25 25 23 23 23 24 25 25 24 23 23 22 20 19 21 23 24 22 19 19 24 28 33 32 32
43 45 41 43 43 45 44 43 41 42 42 42 40 36 35 33 30 25 24 24 26 26 24 24 26 24 23 21 23 27 27 26 27 27 30 32 32 31 32 35 38 39 44
44 42 43 42 45 46 45 44 44 43 43 43 41 40 39 37 33 28 27 27 26 27 28 27 25 23 23 23 22 22 23 23 25 29 33 33 34 30 29 34 35 34 37
43 41 43 44 45 46 46 45 45 45 45 44 43 42 41 39 36 33 32 31 30 30 29 28 28 26 24 25 24 24 25 25 24 24 27 30 31 34 34 32 33 35 36
39 45 43 47 46 46 47 47 47 46 45 45 43 43 43 41 39 35 34 36 36 35 33 33 34 32 30 27 28 31 33 33 33 35 37 38 35 31 32 32 33 34 37
37 42 43 43 45 46 48 46 47 47 47 46 44 44 43 42 40 38 36 34 38 38 37 36 35 35 34 34 35 35 36 35 34 35 35 33 31 30 27 27 28 29 28
40 36 38 42 45 45 44 44 45 46 44 44 43 43 43 43 42 40 38 38 39 37 37 36 34 31 29 26 25 26 28 24 25 27 29 31 29 28 26 20 19 23 25
33 39 40 40 41 43 42 43 43 43 43 40 41 41 44 44 43 41 40 39 39 40 40 37 33 28 23 20 22 24 23 23 24 27 30 30 27 24 14 17 19 22 24
18 38 37 39 42 41 41 42 43 43 42 43 39 43 39 38 42 40 39 38 37 39 38 37 37 31 25 25 25 26 25 27 28 30 31 28 23 16 18 22 27 28 29
30 36 38 38 40 43 41 42 45 43 43 40 40 36 35 34 31 33 32 30 34 36 35 36 36 35 34 35 36 35 34 32 29 29 28 22 18 20 26 28 27 25 25
29 36 37 38 38 40 43 38 43 42 42 43 37 37 31 30 31 32 32 30 25 25 28 32 34 36 38 39 37 35 34 31 29 24 18 18 19 24 26 27 25 20 21
20 28 30 32 33 37 39 37 38 36 37 35 33 27 29 30 29 29 29 33 27 20 19 26 30 28 28 28 28 26 23 24 22 20 21 21 25 27 24 20 19 20 20
18 22 25 29 31 35 35 38 35 37 36 36 35 33 23 28 31 30 27 33 24 19 23 18 14 16 18 18 20 22 24 24 18 19 21 22 21 20 17 20 19 13 13
19 23 25 24 31 33 34 35 32 39 40 36 34 36 33 29 25 24 23 21 22 21 18 18 21 17 14 19 23 22 18 19 18 17 19 19 17 18 18 15 12 13 15
10 17 20 19 26 27 32 35 29 28 29 30 30 32 33 29 22 19 13 4 10 15 18 20 29 26 23 24 23 18 18 18 18 18 17 17 16 14 14 12 14 16 18
13 14 12 12 11 21 21 28 26 24 21 24 19 20 19 18 16 10 10 11 12 12 19 34 28 21 17 19 24 23 21 19 20 16 16 10 12 17 17 17 16 14 15
10 12 12 13 13 13 10 14 14 14 20 23 12 8 6 15 26 14 11 15 14 17 20 24 26 20 19 17 18 22 20 15 11 9 9 13 16 17 16 16 13 11 13
7 7 8 12 10 11 10 10 9 10 7 12 15 10 12 13 16 15 13 12 10 13 24 21 21 19 14 13 14 11 10 8 9 12 12 13 14 17 16 13 16 19 16
2 4 5 7 8 12 8 7 6 2 2 18 31 16 10 15 17 19 19 15 17 23 20 15 14 14 16 15 17 21 20 17 17 20 20 20 21 21 19 21 20 21 19
3 1 6 11 8 11 10 11 10 11 13 19 18 21 19 21 19 20 22 23 21 18 18 20 18 18 16 16 17 17 15 15 16 19 20 20 16 12 10 11 13 15 17
1 8 8 1 3 8 8 8 6 8 6 13 21 27 24 15 8 6 5 5 6 12 14 18 18 15 14 15 15 15 15 16 16 16 16 16 15 15 10 14 16 15 13
11 9 6 1 4 3 7 5 5 6 4 1 6 12 11 10 7 5 5 6 9 12 12 11 10 10 10 10 12 13 13 12 11 10 11 5 8 11 14 13 12 16 18
Wind_Direction
215 218 218 221 220 218 214 209 212 202 210 219 213 225 237 231 217 229 224 222 235 234 217 231 247 235 221 208 239 238 247 251 264 280 278 269 265 277 283 295 308 314 318
213 215 216 216 223 222 217 217 215 214 211 216 222 222 228 231 228 225 232 217 236 235 222 219 232 248 239 217 224 228 233 247 254 265 274 278 283 300 307 307 307 317 322
206 210 209 212 217 225 224 217 220 220 223 219 225 227 231 237 233 231 233 230 216 238 238 237 242 243 248 247 244 245 249 261 276 280 295 303 300 303 304 307 309 311 317
209 208 209 214 214 221 225 223 216 222 226 228 229 235 237 237 235 231 233 238 237 227 234 241 243 247 248 252 256 254 253 255 257 263 271 288 302 311 306 306 310 305 308
207 209 213 212 213 215 217 226 224 225 229 233 235 234 239 238 239 237 232 235 243 243 234 237 243 248 249 249 257 264 268 275 277 281 282 289 290 289 289 295 300 301 295
207 211 211 213 214 213 217 215 224 226 227 231 235 235 236 240 240 235 242 238 239 246 248 240 240 245 256 257 253 256 258 256 261 266 270 276 283 289 294 298 301 305 308
206 211 211 213 215 216 215 218 216 225 228 230 233 235 236 239 241 235 236 243 245 246 247 253 253 251 251 257 264 269 271 270 269 272 275 281 290 297 300 305 306 305 307
207 210 211 211 218 218 217 216 221 220 228 231 233 235 237 240 242 240 235 238 245 250 251 253 255 256 245 245 257 268 273 276 278 282 284 291 296 300 302 302 303 302 303
211 213 216 214 216 220 220 219 219 220 225 232 236 237 238 240 243 244 240 237 241 247 250 250 253 257 264 262 255 254 258 264 272 279 283 286 290 292 293 296 294 294 299
218 216 216 220 213 220 226 225 221 223 230 233 235 238 240 243 245 247 247 242 243 247 253 257 259 258 259 261 265 271 272 275 280 284 284 284 285 289 290 286 291 292 298
223 220 219 219 220 217 222 224 224 223 225 229 233 237 241 244 247 248 247 244 245 249 253 259 263 263 265 267 268 268 273 285 284 284 282 284 286 285 293 295 292 287 292
226 220 217 220 219 215 219 220 223 221 221 223 230 233 240 246 248 248 248 247 247 248 252 258 263 267 272 275 272 274 279 281 277 277 282 286 289 299 302 292 284 284 288
232 222 218 217 216 215 217 220 220 222 222 225 224 234 231 237 246 250 250 249 248 248 250 250 246 242 247 254 259 263 266 267 274 277 283 287 294 302 280 276 282 285 291
228 222 216 212 214 214 216 221 222 221 224 221 223 225 234 227 233 244 251 252 251 249 248 248 250 250 249 250 254 259 265 270 274 279 283 281 283 272 271 286 293 296 298
218 212 209 210 212 214 216 219 221 222 223 222 219 223 223 230 237 230 247 249 251 252 250 248 247 245 246 249 254 259 266 269 274 278 279 284 274 268 280 292 292 301 304
192 196 204 206 212 213 217 217 218 224 222 226 226 219 219 224 231 235 235 241 250 246 243 246 249 254 257 257 259 263 259 260 262 264 268 262 263 278 288 293 288 300 299
200 205 213 216 214 215 213 211 215 213 217 218 220 217 215 220 227 234 236 227 227 226 251 250 255 257 257 259 249 236 229 252 272 268 271 274 277 278 286 293 301 294 298
208 214 216 217 217 218 212 209 212 215 215 213 212 216 222 225 227 222 233 237 236 239 248 251 248 239 247 254 251 252 249 258 266 265 271 274 282 287 287 290 293 294 283
152 201 212 225 215 214 206 207 206 205 216 214 218 217 222 226 234 229 222 239 280 261 265 273 262 242 231 238 248 253 252 267 263 260 263 274 278 274 283 287 279 278 272
90 123 143 164 146 184 190 195 194 197 194 191 197 188 171 171 185 210 240 261 266 298 275 254 253 255 256 259 250 250 259 254 263 268 264 264 271 275 263 260 256 266 274
61 86 72 114 123 121 131 150 159 158 189 150 168 200 209 245 248 248 249 255 263 294 292 258 259 250 251 241 273 265 254 254 250 252 253 261 265 268 259 262 277 271 262
74 80 65 73 100 151 144 174 183 222 228 177 175 233 259 259 226 222 228 232 263 276 260 247 249 247 222 216 216 202 214 220 241 236 234 239 235 250 257 259 254 250 251
119 67 77 66 52 91 123 108 138 139 337 260 251 269 232 210 224 203 195 177 187 195 200 184 179 192 189 201 208 207 212 217 226 236 238 244 254 257 260 261 265 266 261
239 156 58 52 53 62 81 89 106 117 127 100 108 127 119 181 148 145 150 166 180 188 206 213 198 207 216 228 235 240 248 254 256 261 266 266 268 283 287 278 276 274 270
121 248 261 223 39 17 47 59 83 95 133 110 130 124 125 137 155 170 159 175 219 245 246 237 228 226 234 239 246 254 262 272 276 276 273 271 256 244 244 268 271 271 267
52 66 80 107 288 237 234 316 13 31 60 283 60 123 135 152 156 182 231 238 239 234 227 224 231 249 253 255 259 265 272 280 283 281 273 249 238 235 243 256 262 266 270
Height
1518 1524 1531 1537 1544 1551 1556 1560 1564 1569 1572 1576 1579 1580 1581 1584 1587 1589 1591 1594 1593 1595 1597 1597 1598 1600 1600 1602 1604 1606 1606 1606 1606 1605 1605 1605 1604 1602 1601 1599 1596 1593 1591
1510 1517 1524 1531 1536 1542 1548 1553 1558 1563 1567 1570 1574 1576 1578 1580 1583 1585 1587 1589 1591 1592 1593 1595 1596 1597 1597 1599 1601 1602 1603 1604 1603 1601 1601 1601 1600 1598 1596 1594 1591 1589 1586
1505 1511 1518 1524 1528 1533 1540 1547 1552 1557 1561 1565 1568 1570 1573 1576 1578 1580 1582 1585 1588 1589 1590 1591 1592 1593 1594 1595 1597 1598 1599 1600 1600 1598 1596 1596 1595 1595 1592 1590 1587 1584 1583
1499 1504 1510 1515 1520 1526 1532 1539 1545 1549 1554 1558 1561 1564 1568 1570 1573 1576 1578 1580 1582 1585 1587 1588 1589 1589 1590 1591 1592 1594 1595 1595 1596 1595 1593 1592 1592 1590 1589 1587 1585 1584 1581
1491 1495 1499 1506 1514 1521 1526 1530 1537 1542 1546 1551 1555 1559 1561 1564 1567 1570 1573 1575 1577 1579 1581 1583 1584 1585 1586 1587 1588 1589 1590 1591 1590 1590 1589 1588 1588 1588 1586 1584 1580 1577 1575
1483 1487 1496 1503 1509 1514 1519 1525 1529 1535 1539 1543 1547 1551 1555 1557 1561 1564 1567 1570 1572 1573 1575 1577 1578 1580 1581 1582 1584 1585 1586 1586 1586 1585 1584 1583 1582 1581 1580 1578 1575 1569 1562
1475 1482 1488 1495 1501 1506 1512 1518 1523 1526 1532 1535 1539 1543 1547 1550 1555 1559 1561 1563 1566 1567 1569 1571 1572 1574 1575 1577 1578 1579 1579 1580 1579 1579 1577 1576 1575 1576 1574 1571 1568 1565 1560
1468 1476 1482 1487 1492 1499 1505 1510 1515 1520 1523 1527 1531 1535 1539 1542 1547 1552 1555 1557 1559 1560 1563 1564 1566 1567 1569 1571 1572 1572 1572 1572 1572 1572 1570 1569 1569 1569 1568 1565 1562 1558 1555
1461 1467 1473 1479 1485 1491 1495 1501 1507 1513 1517 1519 1523 1527 1530 1534 1539 1544 1548 1550 1552 1553 1556 1558 1559 1560 1561 1564 1566 1566 1566 1566 1566 1565 1564 1563 1561 1561 1560 1558 1555 1553 1549
1452 1459 1468 1474 1480 1483 1488 1494 1501 1505 1507 1512 1516 1519 1523 1527 1531 1535 1540 1543 1544 1546 1548 1550 1552 1553 1556 1557 1557 1557 1556 1557 1559 1558 1558 1557 1556 1555 1554 1553 1550 1547 1546
1447 1455 1462 1468 1472 1477 1483 1489 1494 1498 1502 1506 1509 1513 1516 1519 1522 1527 1531 1534 1535 1538 1540 1541 1542 1545 1547 1549 1550 1550 1550 1552 1551 1551 1550 1549 1548 1547 1547 1545 1545 1543 1542
1444 1448 1455 1461 1467 1472 1476 1481 1486 1491 1495 1499 1502 1505 1507 1510 1513 1517 1521 1525 1528 1530 1531 1533 1535 1537 1538 1540 1542 1543 1545 1546 1545 1544 1543 1542 1542 1542 1541 1540 1540 1539 1537
1439 1441 1447 1454 1459 1465 1469 1473 1478 1483 1487 1490 1494 1495 1500 1502 1505 1508 1512 1516 1519 1521 1524 1527 1529 1532 1534 1535 1535 1536 1538 1538 1538 1537 1536 1536 1537 1537 1537 1537 1536 1534 1531
1433 1435 1440 1446 1451 1456 1462 1466 1470 1473 1477 1480 1484 1489 1491 1497 1500 1501 1504 1507 1510 1512 1516 1520 1523 1526 1527 1528 1528 1529 1530 1531 1531 1531 1530 1530 1532 1533 1533 1531 1529 1527 1524
1425 1430 1435 1440 1444 1448 1453 1458 1460 1464 1467 1469 1475 1480 1485 1487 1490 1495 1495 1499 1503 1506 1509 1512 1514 1516 1517 1519 1521 1522 1523 1525 1525 1525 1525 1526 1526 1525 1525 1526 1523 1521 1519
1423 1426 1430 1434 1438 1442 1446 1451 1454 1459 1463 1467 1471 1477 1478 1481 1484 1488 1490 1492 1497 1500 1503 1503 1504 1508 1510 1512 1514 1516 1516 1517 1519 1520 1520 1520 1520 1519 1519 1518 1517 1517 1515
1420 1424 1428 1430 1433 1435 1439 1444 1447 1452 1457 1462 1466 1472 1472 1474 1478 1481 1484 1487 1490 1494 1496 1499 1501 1504 1504 1506 1508 1510 1512 1513 1514 1515 1516 1515 1514 1513 1513 1513 1513 1512 1511
1418 1420 1423 1424 1428 1429 1433 1438 1442 1444 1449 1453 1460 1465 1467 1470 1472 1476 1480 1483 1485 1489 1491 1494 1497 1499 1499 1502 1504 1504 1506 1509 1507 1507 1509 1510 1510 1510 1509 1508 1508 1509 1509
1414 1416 1418 1419 1420 1423 1429 1433 1435 1440 1445 1449 1452 1456 1459 1463 1468 1471 1473 1477 1480 1482 1487 1487 1493 1496 1488 1494 1500 1496 1500 1503 1501 1500 1502 1504 1505 1505 1504 1504 1505 1505 1504
1412 1412 1415 1416 1415 1419 1424 1430 1432 1435 1438 1441 1449 1452 1455 1458 1460 1464 1469 1472 1470 1475 1484 1470 1482 1481 1482 1486 1492 1493 1496 1497 1495 1495 1496 1497 1499 1501 1499 1499 1499 1499 1499
1411 1412 1413 1413 1415 1417 1424 1426 1431 1432 1437 1427 1441 1447 1450 1454 1457 1458 1458 1460 1460 1467 1475 1482 1485 1482 1477 1479 1486 1490 1490 1490 1489 1490 1490 1492 1494 1495 1494 1494 1494 1494 1495
1415 1413 1413 1413 1414 1416 1418 1423 1430 1432 1429 1430 1433 1440 1446 1449 1456 1455 1452 1449 1444 1445 1473 1479 1481 1479 1475 1476 1482 1484 1487 1486 1486 1486 1486 1487 1488 1488 1489 1489 1488 1488 1488
1415 1413 1414 1417 1419 1416 1417 1419 1421 1426 1429 1435 1438 1435 1446 1443 1454 1451 1446 1435 1444 1453 1469 1472 1473 1472 1472 1474 1475 1476 1477 1479 1480 1477 1477 1478 1482 1481 1482 1481 1480 1482 1482
1417 1416 1418 1421 1422 1416 1418 1410 1427 1423 1425 1431 1430 1432 1440 1431 1447 1448 1445 1444 1449 1456 1461 1467 1471 1470 1467 1468 1470 1473 1475 1475 1475 1474 1473 1474 1473 1476 1474 1477 1476 1477 1478
1415 1415 1415 1413 1415 1418 1421 1424 1425 1423 1426 1427 1430 1425 1436 1443 1448 1451 1450 1446 1449 1454 1457 1462 1464 1463 1463 1466 1466 1467 1468 1469 1469 1468 1468 1468 1468 1470 1468 1470 1471 1472 1473
1420 1418 1418 1417 1418 1418 1421 1425 1427 1422 1429 1434 1419 1426 1431 1440 1444 1446 1444 1445 1450 1456 1461 1460 1460 1459 1459 1459 1460 1463 1463 1465 1466 1465 1464 1463 1463 1463 1460 1463 1464 1465 1466